Flag for India Weather past 2 weeks in Chennai, Tamil Nadu, India

79 °F

Partly cloudy.

Feels Like: 83 °F
Forecast: 75 / 84 °F
Wind: No wind

Location: Madras / Minambakkam

Current Time: Nov 26, 2015 at 5:49:03 AM

Latest Report: Nov 26, 2015 at 5:00 AM

Visibility: 2 mi

Pressure: 29.86 "Hg

Humidity: 94%

Dew point: 77 °F

Location of ChennaiLocation

Historic Weather in Chennai — Graph


Chennai temperature yesterday

Maximum temperature yesterday: 88 °F (at 12:00 PM)
Minimum temperature yesterday: 75 °F (at 3:00 AM)
Average temperature yesterday: 81 °F

Past Weeks' High & Low Weather Summary

High88 °F (Nov 12, 1:40 PM)100% (Nov 11, 6:10 PM)29.98 "Hg (Nov 11, 6:10 PM)
Low73 °F (Nov 17, 6:00 AM)55% (Nov 25, 12:30 PM)29.65 "Hg (Nov 16, 2:30 PM)
Average79 °F90%29.83 "Hg
* Reported Nov 11 4:40 AM — Nov 26 4:30 AM, Chennai, Weather by CustomWeather, © 2015

Note: Actual official high and low records may vary slightly from our data, if they occured in-between our weather recording intervals... More about our weather records


Chennai weather history for previous 24 hours

Time TempWeatherWind HumidityBarometerVisibility
4:30 AM
Thu, Nov 26
79 °FPartly cloudy.No wind94%29.86 "Hg2 mi
4:00 AM79 °FFog.3 mph94%29.86 "Hg2 mi
3:30 AM79 °FFog.3 mph89%29.86 "Hg2 mi
3:00 AM79 °FFog.6 mph89%29.86 "Hg2 mi
2:30 AM81 °FFog.6 mph84%29.86 "Hg2 mi
2:00 AM81 °FFog.6 mph84%29.86 "Hg2 mi
1:30 AM81 °FFog.5 mph84%29.86 "Hg2 mi
1:00 AM81 °FFog.3 mph84%29.89 "Hg2 mi
12:30 AM81 °FFog.5 mph84%29.89 "Hg2 mi
12:00 AM81 °FFog.5 mph84%29.89 "Hg2 mi
11:30 PM
Wed, Nov 25
81 °FFog.5 mph84%29.92 "Hg2 mi
11:00 PM81 °FFog.5 mph84%29.92 "Hg2 mi
10:30 PM81 °FFog.5 mph84%29.92 "Hg2 mi
10:00 PM81 °FFog.3 mph84%29.92 "Hg2 mi
9:30 PM81 °FPartly cloudy.No wind84%29.92 "Hg2 mi
9:00 PM81 °FMostly cloudy.No wind89%29.92 "Hg2 mi
8:30 PM82 °FMostly cloudy.No wind74%29.89 "Hg2 mi
8:00 PM82 °FPartly cloudy.5 mph74%29.89 "Hg4 mi
7:30 PM82 °FPartly cloudy.6 mph70%29.86 "Hg4 mi
7:00 PM82 °FPartly cloudy.7 mph79%29.86 "Hg4 mi
6:30 PM82 °FPartly cloudy.10 mph79%29.86 "Hg4 mi
6:00 PM82 °FBroken clouds.7 mph79%29.83 "Hg4 mi
5:30 PM82 °FBroken clouds.7 mph74%29.83 "Hg4 mi
5:00 PM82 °FBroken clouds.9 mph74%29.83 "Hg4 mi
4:30 PM84 °FBroken clouds.7 mph70%29.83 "Hg4 mi
4:00 PM84 °FBroken clouds.9 mph70%29.80 "Hg4 mi
3:30 PM86 °FBroken clouds.8 mph66%29.80 "Hg4 mi
3:00 PM86 °FBroken clouds.9 mph62%29.80 "Hg4 mi
2:30 PM86 °FBroken clouds.9 mph62%29.80 "Hg4 mi
2:00 PM86 °FScattered clouds.8 mph62%29.83 "Hg4 mi
1:30 PM88 °FScattered clouds.8 mph59%29.83 "Hg4 mi
12:30 PM88 °FScattered clouds.10 mph55%29.86 "Hg4 mi
12:00 PM88 °FScattered clouds.9 mph59%29.89 "Hg4 mi
11:30 AM86 °FScattered clouds.9 mph66%29.89 "Hg4 mi
11:00 AM86 °FScattered clouds.6 mph70%29.92 "Hg3 mi
10:30 AM84 °FScattered clouds.6 mph74%29.92 "Hg3 mi
10:00 AM82 °FFog.6 mph79%29.92 "Hg3 mi
9:30 AM82 °FFog.6 mph79%29.92 "Hg3 mi
9:00 AM82 °FFog.6 mph84%29.92 "Hg3 mi
8:30 AM81 °FFog.3 mph89%29.92 "Hg3 mi
8:00 AM79 °FFog.3 mph94%29.92 "Hg2 mi
7:30 AM77 °FFog.No wind94%29.89 "Hg2 mi
7:00 AM75 °FFog.No wind100%29.89 "Hg2 mi
6:30 AM75 °FFog.No wind100%29.86 "Hg2 mi
6:00 AM75 °FFog.No wind100%29.86 "Hg2 mi
5:30 AM75 °FFog.No wind100%29.86 "Hg2 mi
5:00 AM75 °FFog.No wind94%29.83 "Hg2 mi
Weather by CustomWeather, © 2015

See weather overviewHow to use our weather pages